Weather History for Massena, NY

Change the Weather History Date:

Tuesday, December 18, 2012

  Actual Average Record
Temperature  
Mean Temperature 35 °F 21 °F  
Max Temperature 37 °F 29 °F 44 °F (1949)
Min Temperature 33 °F 13 °F -16 °F (1985)
Degree Days  
Heating Degree Days 30 44  
Month to date heating degree days 592 724  
Since 1 July heating degree days 2199 2493  
Moisture  
Dew Point 33 °F    
Average Humidity 96    
Maximum Humidity 100    
Minimum Humidity 92    
Precipitation  
Precipitation 0.59 in 0.07 in 0.62 in (1990)
Month to date precipitation 2.27 1.49  
Year to date precipitation 28.75 34.02  
Sea Level Pressure  
Sea Level Pressure 29.58 in    
Wind  
Wind Speed 10 mph (NNE)    
Max Wind Speed 23 mph    
Max Gust Speed 28 mph    
Visibility 5 miles    
Events Rain , Snow    
T = Trace of Precipitation, MM = Missing Value Source: NWS Daily Summary

Daily Weather History Graph

Daily Weather History Graph

Search for Another Location

Airport:

Trip Planner

Search our weather history database for the weather conditions in past years. The results will help you decide how hot, cold, wet, or windy it might be!

Date:

Astronomy

Dec. 18, 2012 Rise Set
Actual Time 7:32 AM EST 4:19 PM EST
Civil Twilight 6:59 AM EST 4:53 PM EST
Nautical Twilight 6:21 AM EST 5:30 PM EST
Astronomical Twilight 5:46 AM EST 6:06 PM EST
Moon 10:57 AM EST (12/18) 10:58 PM EST (12/18)
Length of Visible Light 9h 54m
Length of Day
8h 46m
Waxing Crescent, 34% of the Moon is Illuminated
Dec 18
Waxing Crescent
Dec 20
First Quarter
Dec 28
Full
Jan 4
Last Quarter
Jan 11
New

Hourly Weather History & Observations

Time (EST) Temp. Windchill Dew Point Humidity Pressure Visibility Wind Dir Wind Speed Gust Speed Precip Events Conditions
12:26 AM 35.6 °F 29.9 °F 33.8 °F 93% 29.70 in 5.0 mi NE 6.9 mph - 0.00 in Rain Light Rain
12:53 AM 35.1 °F 29.3 °F 34.0 °F 96% 29.71 in 5.0 mi NE 6.9 mph - 0.00 in Rain Light Rain
1:53 AM 35.1 °F 28.6 °F 34.0 °F 96% 29.69 in 6.0 mi NE 8.1 mph - 0.01 in Rain Light Rain
2:44 AM 35.6 °F 28.6 °F 33.8 °F 93% 29.66 in 5.0 mi NE 9.2 mph - 0.00 in Rain Light Rain
2:53 AM 36.0 °F 29.6 °F 34.0 °F 93% 29.67 in 5.0 mi NE 8.1 mph - 0.00 in Rain Light Rain
3:35 AM 37.4 °F 28.9 °F 35.6 °F 93% 29.63 in 5.0 mi NE 13.8 mph - 0.04 in Rain Light Rain
3:53 AM 36.0 °F 29.0 °F 34.0 °F 93% 29.65 in 4.0 mi NE 9.2 mph - 0.06 in Rain Rain
4:53 AM 36.0 °F 27.5 °F 34.0 °F 93% 29.63 in 4.0 mi NE 12.7 mph - 0.13 in Rain Rain
5:53 AM 36.0 °F 25.6 °F 34.0 °F 93% 29.61 in 6.0 mi NE 18.4 mph 23.0 mph 0.16 in Rain Rain
6:53 AM 35.1 °F 23.8 °F 33.1 °F 92% 29.60 in 5.0 mi ENE 20.7 mph 27.6 mph 0.12 in Rain Rain
7:53 AM 34.0 °F 23.0 °F 33.1 °F 96% 29.59 in 10.0 mi ENE 18.4 mph 24.2 mph 0.04 in Rain Light Rain
8:53 AM 34.0 °F 23.8 °F 33.1 °F 96% 29.57 in 8.0 mi ENE 16.1 mph - 0.01 in Rain Light Rain
9:53 AM 35.1 °F 26.4 °F 33.1 °F 92% 29.57 in 7.0 mi ENE 12.7 mph 24.2 mph 0.00 in   Overcast
10:53 AM 35.1 °F 24.8 °F 33.1 °F 92% 29.54 in 10.0 mi ENE 17.3 mph - 0.00 in Rain Light Rain
11:53 AM 35.1 °F 25.5 °F 33.1 °F 92% 29.51 in 10.0 mi ENE 15.0 mph 23.0 mph 0.00 in   Overcast
12:41 PM 35.6 °F 26.6 °F 33.8 °F 93% 29.48 in 2.0 mi ENE 13.8 mph 20.7 mph 0.01 in Rain Light Rain
12:53 PM 35.1 °F 26.9 °F 34.0 °F 96% 29.49 in 3.0 mi ENE 11.5 mph - 0.01 in Rain Light Rain
1:53 PM 35.1 °F 26.9 °F 34.0 °F 96% 29.49 in 4.0 mi ENE 11.5 mph - 0.00 in   Overcast
2:53 PM 35.1 °F 26.9 °F 34.0 °F 96% 29.49 in 5.0 mi ENE 11.5 mph - 0.00 in Rain Light Rain
3:50 PM 35.6 °F 27.5 °F 33.8 °F 93% 29.48 in 5.0 mi ENE 11.5 mph - 0.01 in Rain Light Rain
3:53 PM 35.1 °F 27.4 °F 34.0 °F 96% 29.50 in 4.0 mi ENE 10.4 mph - 0.01 in   Overcast
4:53 PM 35.1 °F 28.6 °F 34.0 °F 96% 29.51 in 6.0 mi ENE 8.1 mph - 0.00 in Rain Light Rain
5:53 PM 34.0 °F 31.0 °F 33.1 °F 96% 29.53 in 5.0 mi NNE 3.5 mph - 0.01 in   Overcast
6:53 PM 34.0 °F 31.0 °F 33.1 °F 96% 29.55 in 4.0 mi NW 3.5 mph - 0.00 in Snow Light Snow
7:53 PM 33.1 °F 28.7 °F 32.0 °F 96% 29.57 in 5.0 mi WNW 4.6 mph - 0.01 in Snow Light Snow
8:12 PM 33.8 °F 29.6 °F 32.0 °F 93% 29.56 in 5.0 mi WNW 4.6 mph - 0.00 in Snow Light Snow
8:22 PM 33.8 °F 30.8 °F 32.0 °F 93% 29.56 in 4.0 mi WNW 3.5 mph - 0.00 in Snow Light Snow
8:51 PM 33.8 °F 30.8 °F 32.0 °F 93% 29.57 in 2.5 mi West 3.5 mph - 0.00 in Snow Light Snow
8:53 PM 33.1 °F 28.7 °F 32.0 °F 96% 29.58 in 2.5 mi West 4.6 mph - 0.00 in Snow Light Snow
9:01 PM 33.8 °F 29.6 °F 32.0 °F 93% 29.57 in 3.0 mi West 4.6 mph - 0.00 in Snow Light Snow
9:31 PM 33.8 °F 29.6 °F 32.0 °F 93% 29.58 in 2.5 mi West 4.6 mph - 0.00 in Snow Light Snow
9:53 PM 33.1 °F 28.7 °F 32.0 °F 96% 29.59 in 2.5 mi West 4.6 mph - 0.01 in Snow Light Snow
10:25 PM 33.8 °F 30.8 °F 32.0 °F 93% 29.59 in 3.0 mi WSW 3.5 mph - 0.00 in Snow Light Snow
10:36 PM 33.8 °F 28.6 °F 32.0 °F 93% 29.59 in 2.5 mi WSW 5.8 mph - 0.00 in Snow Light Snow
10:53 PM 33.1 °F 28.7 °F 32.0 °F 96% 29.61 in 2.5 mi WSW 4.6 mph - 0.00 in Snow Light Snow
11:05 PM 33.8 °F 28.6 °F 32.0 °F 93% 29.59 in 3.0 mi SW 5.8 mph - 0.00 in Snow Light Snow
11:17 PM 33.8 °F 28.6 °F 32.0 °F 93% 29.59 in 2.5 mi WSW 5.8 mph - 0.00 in Snow Light Snow
11:49 PM 33.8 °F 29.6 °F 32.0 °F 93% 29.60 in 3.0 mi WSW 4.6 mph - 0.01 in Snow Light Snow
11:53 PM 33.1 °F 27.7 °F 32.0 °F 96% 29.62 in 2.5 mi WSW 5.8 mph - 0.01 in Snow Light Snow